sat.trackr.live / text

‹ back to catalog

STARLINK-5848

NORAD 55932 · 2023-037U

PAYLOAD ACTIVE UNKNOWN

§ Identity

Operator
Country
US
Launch date
2023-03-17
Launch site
AFWTR
Launch vehicle
Mass (kg)
RCS (m²)

Purposes: comms

External: N2YO · Heavens-Above · Gunter

§ Orbital elements

Epoch: 2026-05-25T02:26:20.476896Z

Period
96.11 min
Inclination
70.0011°
Eccentricity
0.0002013
Mean motion
14.98326598 rev/d
Perigee alt
570.7 km
Apogee alt
573.5 km
Semi-major
6,950.2 km
B*
-3.4575e-4
RAAN
71.6071°
Arg perigee
247.5249°
Mean anomaly
112.5697°
Rev number
17,592

§ Raw data

STARLINK-58481 55932U 23037U   26145.10162589 -.00004215  00000+0 -34575-3 0  99992 55932  70.0011  71.6071 0002013 247.5249 112.5697 14.98326598175926

JSON: /api/v1/satellites/55932 · /tle

For live sub-satellite position, see the globe view (requires WebGL).

§ Visibility from observer

Set your observer location to see the next 7 days of passes ≥ 10°. The values pass through the URL so the page stays shareable.

No JS? Fill the form by hand. The geolocation button needs JavaScript.